Hagerstown, MD

9:57 PM EDT on August 23, 2017 (GMT -0400)
Hagerstown Regional-Henson

Weather History for KHGR - July, 2012

Change the Weather History Date:

Monday, July 30, 2012

  Actual Average Record
Temperature  
Mean Temperature 76 °F 75 °F  
Max Temperature 88 °F 85 °F 95 °F (1999)
Min Temperature 63 °F 65 °F 52 °F (2014)
Degree Days  
Heating Degree Days 0 0  
Month to date heating degree days 0 0  
Since 1 June heating degree days 10 18  
Since 1 July heating degree days 0 0  
Cooling Degree Days 11 10  
Month to date cooling degree days 442 312  
Year to date cooling degree days 810 597  
Since 1 June cooling degree days 654 521  
Growing Degree Days 25 (Base 50)    
Moisture  
Dew Point 64 °F    
Average Humidity 66    
Maximum Humidity 87    
Minimum Humidity 45    
Precipitation  
Precipitation 0.00 in 0.12 in 1.19 in (2016)
Month to date precipitation 2.86 3.29  
Year to date precipitation 19.56 23.37  
Sea Level Pressure  
Sea Level Pressure 30.07 in    
Wind  
Wind Speed 3 mph (ESE)    
Max Wind Speed 14 mph    
Max Gust Speed 18 mph    
Visibility 10 miles    
Events      
T = Trace of Precipitation, MM = Missing Value Source: NWS Daily Summary

Daily Weather History Graph

Daily Weather History Graph

Search for Another Location

Airport or City:

Trip Planner

Search our weather history database for the weather conditions in past years. The results will help you decide how hot, cold, wet, or windy it might be!

Date:

Astronomy

Jul. 30, 2012 Rise Set
Actual Time 6:08 AM EDT 8:25 PM EDT
Civil Twilight 5:38 AM EDT 8:55 PM EDT
Nautical Twilight 5:00 AM EDT 9:32 PM EDT
Astronomical Twilight 4:19 AM EDT 10:13 PM EDT
Moon 6:25 PM EDT (7/30) 3:21 AM EDT (7/30)
Length of Visible Light 15h 17m
Length of Day
14h 16m
Waxing Gibbous, 92% of the Moon is Illuminated
Jul 30
Waxing Gibbous
Aug 1
Full
Aug 9
Last Quarter
Aug 17
New
Aug 24
First Quarter

Hourly Weather History & Observations

Time (EDT) Temp. Heat Index Dew Point Humidity Pressure Visibility Wind Dir Wind Speed Gust Speed Precip Events Conditions
12:53 AM 72.0 °F - 63.0 °F 73% 30.06 in 10.0 mi ENE 3.5 mph - N/A   Clear
1:53 AM 71.1 °F - 61.0 °F 70% 30.06 in 10.0 mi Calm Calm - N/A   Clear
2:53 AM 69.1 °F - 61.0 °F 75% 30.05 in 10.0 mi Calm Calm - N/A   Clear
3:53 AM 66.9 °F - 61.0 °F 81% 30.05 in 10.0 mi Calm Calm - N/A   Clear
4:53 AM 66.0 °F - 61.0 °F 84% 30.06 in 10.0 mi Calm Calm - N/A   Clear
5:53 AM 64.0 °F - 61.0 °F 90% 30.08 in 9.0 mi NW 3.5 mph - N/A   Clear
6:53 AM 64.0 °F - 61.0 °F 90% 30.09 in 9.0 mi Calm Calm - N/A   Clear
7:53 AM 68.0 °F - 62.1 °F 81% 30.11 in 10.0 mi Calm Calm - N/A   Clear
8:53 AM 71.1 °F - 64.0 °F 78% 30.12 in 10.0 mi Calm Calm - N/A   Clear
9:53 AM 75.9 °F - 64.9 °F 69% 30.11 in 10.0 mi Calm Calm - N/A   Clear
10:53 AM 80.1 °F 82.1 °F 66.0 °F 62% 30.10 in 10.0 mi Calm Calm - N/A   Clear
11:53 AM 82.0 °F 84.5 °F 66.9 °F 60% 30.10 in 10.0 mi Variable 3.5 mph - N/A   Mostly Cloudy
12:53 PM 84.0 °F 85.8 °F 64.9 °F 53% 30.08 in 10.0 mi Variable 6.9 mph - N/A   Mostly Cloudy
1:53 PM 84.0 °F 85.8 °F 64.9 °F 53% 30.07 in 10.0 mi SSE 4.6 mph - N/A   Overcast
2:53 PM 86.0 °F 87.3 °F 64.0 °F 48% 30.05 in 10.0 mi WSW 6.9 mph - N/A   Mostly Cloudy
3:53 PM 86.0 °F 86.3 °F 62.1 °F 44% 30.04 in 10.0 mi ESE 9.2 mph - N/A   Overcast
4:53 PM 82.0 °F 84.9 °F 68.0 °F 62% 30.04 in 10.0 mi East 10.4 mph - N/A   Overcast
5:53 PM 82.9 °F 85.4 °F 66.9 °F 58% 30.04 in 10.0 mi East 8.1 mph - N/A   Partly Cloudy
6:53 PM 82.0 °F 84.5 °F 66.9 °F 60% 30.03 in 10.0 mi ESE 6.9 mph - N/A   Clear
7:53 PM 80.1 °F 82.7 °F 68.0 °F 67% 30.04 in 10.0 mi ESE 4.6 mph - N/A   Clear
8:53 PM 78.1 °F - 66.0 °F 66% 30.04 in 10.0 mi ESE 6.9 mph - N/A   Clear
9:53 PM 78.1 °F - 66.0 °F 66% 30.05 in 10.0 mi ESE 5.8 mph - N/A   Scattered Clouds
10:53 PM 75.9 °F - 66.0 °F 71% 30.06 in 10.0 mi SE 3.5 mph - N/A   Clear
11:53 PM 75.0 °F - 66.9 °F 76% 30.06 in 10.0 mi SE 5.8 mph - N/A   Partly Cloudy